Regional Weather Roundup
Issued by NWS

Home | Current Version | Previous Version | Graphics & Text | Print | Product List | Glossary On
Versions: 1 2 3 4 5 6 7 8 9 10 11 12 13 14 15 16 17 18 19 20 21 22 23 24 25 26 27 28 29 30 31 32 33 34 35 36 37 38 39 40 41 42 43 44 45 46 47 48 49 50
000
ASUS43 KTOP 231159
RWRKS

WEATHER ROUNDUP FOR KANSAS
NATIONAL WEATHER SERVICE GOODLAND KS
600 AM CST TUE JAN 23 2018

NOTE:  "FAIR" INDICATES FEW OR NO CLOUDS BELOW 12,000 FEET WITH NO
SIGNIFICANT WEATHER AND/OR OBSTRUCTIONS TO VISIBILITY.

KSZ001>006-013>018-027>032-041>047-231300-
NORTHWEST KANSAS

CITY           SKY/WX    TMP DP  RH WIND       PRES   REMARKS
GOODLAND       PTCLDY    18  11  74 W14       30.14R WCI   4
6HR MIN TEMP:  15; 6HR MAX TEMP:  21;

HAYS           CLEAR     21  15  78 NW9       30.14R
HILL CITY      CLEAR     21  14  74 NW10      30.15R WCI  10
6HR MIN TEMP:  21; 6HR MAX TEMP:  25;

RUSSELL        CLEAR     24  18  77 NW12      30.12R WCI  13
6HR MIN TEMP:  22; 6HR MAX TEMP:  28;

$$

KSZ061>065-074>080-084>089-231300-
SOUTHWEST KANSAS

CITY           SKY/WX    TMP DP  RH WIND       PRES   REMARKS
DODGE CITY     CLEAR     23  12  62 NW14      30.16R WCI  11
6HR MIN TEMP:  23; 6HR MAX TEMP:  28;

GARDEN CITY    CLEAR     18  10  71 NW10      30.17R WCI   6
6HR MIN TEMP:  16; 6HR MAX TEMP:  21;

GREAT BEND     CLEAR     23  17  78 W9        30.15R
LIBERAL        CLEAR     18   9  68 NW10      30.19S WCI   6
$$

KSZ066>073-081>083-090>101-231300-
SOUTHEAST KANSAS

CITY           SKY/WX    TMP DP  RH WIND       PRES   REMARKS
COFFEYVILLE    CLEAR     28  23  81 W6        30.13R
6HR MIN TEMP:  28; 6HR MAX TEMP:  39;

HUTCHINSON     CLEAR     24  19  81 NW10      30.13R WCI  14
6HR MIN TEMP:  23; 6HR MAX TEMP:  30;

MEDICINE LODGE   N/A     31  17  56 W6        30.17R
NEWTON         CLEAR     23  20  88 NW9       30.13R
PARSONS        CLEAR     29  24  82 NW8       30.13R
6HR MIN TEMP:  29; 6HR MAX TEMP:  37;

WICHITA INTL   CLEAR     25  20  81 NW10      30.14R WCI  15
6HR MIN TEMP:  25; 6HR MAX TEMP:  32;

WICHITA JABRA  CLEAR     25  21  85 NW9       30.13R
6HR MIN TEMP:  24; 6HR MAX TEMP:  32;

WICHITA MCCONL CLEAR     27  19  72 NW10      30.13R WCI  17
WINFIELD       CLEAR     21  18  88 W6        30.16R
6HR MIN TEMP:  21; 6HR MAX TEMP:  32;

$$

KSZ007>012-019>026-033>040-048>060-102>105-231300-
NORTHEAST KANSAS

CITY           SKY/WX    TMP DP  RH WIND       PRES   REMARKS
CONCORDIA      CLEAR     18  16  92 N3        30.11R
6HR MIN TEMP:  17; 6HR MAX TEMP:  28;

EMPORIA        CLOUDY    25  21  85 NW10      30.10R WCI  15
6HR MIN TEMP:  22; 6HR MAX TEMP:  30;

LAWRENCE       CLOUDY    29  25  85 W16       30.08R WCI  17
6HR MIN TEMP:  28; 6HR MAX TEMP:  32;

MANHATTAN      CLOUDY    27  21  78 VRB6      30.13R
6HR MIN TEMP:  27; 6HR MAX TEMP:  28;

OLATHE IND     CLOUDY    27  24  89 NW17      30.07R WCI  14
6HR MIN TEMP:  27; 6HR MAX TEMP:  30;

OLATHE EXE     CLOUDY    27  25  92 NW14G20   30.04R WCI  16
6HR MIN TEMP:  27; 6HR MAX TEMP:  30;

SALINA         CLEAR     24  20  84 W8        30.14R
6HR MIN TEMP:  24; 6HR MAX TEMP:  31;

TOPEKA BILLARD CLOUDY    27  24  89 NW16      30.11R WCI  15
6HR MIN TEMP:  27; 6HR MAX TEMP:  30;

TOPEKA FORBES  CLOUDY    28  23  81 NW17      30.10R WCI  16
6HR MIN TEMP:  28; 6HR MAX TEMP:  31;

$$




USA.gov is the U.S. government's official web portal to all federal, state and local government web resources and services.